This is the latest recevied weather packets stored in our database for station/object N5GMJ. If no packets are shown the sender has not sent any weather packets the latest 10 day(s).
| Time | Temp. | Humidity | Pressure | Rain* | Wind** | Luminosity | Snow |
|---|---|---|---|---|---|---|---|
| 1777664973 | 16.67° C | 61% | 1018.4 hPa | 0 mm | - | - | - |
| 1777664670 | 16.67° C | 60% | 1018.1 hPa | 0 mm | - | - | - |
| 1777664365 | 16.67° C | 63% | 1017.8 hPa | 0 mm | - | - | - |
| 1777664064 | 16.67° C | 63% | 1017.8 hPa | 0 mm | - | - | - |
| 1777663762 | 16.67° C | 60% | 1017.8 hPa | 0 mm | - | - | - |
| 1777663458 | 16.67° C | 62% | 1017.6 hPa | 0 mm | - | - | - |
| 1777663156 | 16.67° C | 61% | 1017.6 hPa | 0 mm | - | - | - |
| 1777662853 | 16.67° C | 63% | 1017.8 hPa | 0 mm | - | - | - |
| 1777662550 | 16.67° C | 62% | 1017.6 hPa | 0 mm | - | - | - |
| 1777662246 | 16.67° C | 61% | 1017.5 hPa | 0 mm | - | - | - |
| 1777661940 | 16.67° C | 59% | 1017.5 hPa | 0 mm | - | - | - |
| 1777661637 | 16.67° C | 59% | 1017.8 hPa | 0 mm | - | - | - |
| 1777661333 | 16.67° C | 61% | 1017.8 hPa | 0 mm | - | - | - |
| 1777661029 | 16.67° C | 62% | 1017.5 hPa | 0 mm | - | - | - |
| 1777660724 | 16.67° C | 61% | 1017.5 hPa | 0 mm | - | - | - |
| 1777660422 | 17.22° C | 62% | 1017.6 hPa | 0 mm | - | - | - |
| 1777660118 | 17.22° C | 60% | 1017.5 hPa | 0 mm | - | - | - |
| 1777659815 | 17.22° C | 60% | 1017.8 hPa | 0 mm | - | - | - |
| 1777659512 | 17.22° C | 62% | 1017.8 hPa | 0 mm | - | - | - |
| 1777659209 | 17.22° C | 61% | 1017.9 hPa | 0 mm | - | - | - |
| 1777658906 | 17.22° C | 62% | 1017.7 hPa | 0 mm | - | - | - |
| 1777658602 | 17.22° C | 63% | 1017.8 hPa | 0 mm | - | - | - |
| 1777658300 | 17.78° C | 65% | 1017.8 hPa | 0 mm | - | - | - |
| 1777657996 | 17.22° C | 61% | 1017.7 hPa | 0 mm | - | - | - |
| 1777657693 | 16.67° C | 62% | 1017.8 hPa | 0 mm | - | - | - |
* Rain latest hour (hover to see other rain measurements)
** Current wind speed in m/s (hover to see current wind gust speed)